Total_Precipitation_Accumulation
0.34 0.56 0.99 1.66 2.47 3.19 3.34 2.93 2.49 2.21 1.94 1.63 1.14 0.80 0.62 0.51 0.39 0.28 0.21 0.15 0.10 0.07 0.05 0.02 0.01 0.02 0.02 0.03 0.05 0.07 0.08 0.06 0.12 0.13 0.08 0.07 0.06 0.09 0.11 0.10 0.08 0.04 0.03
0.62 1.14 1.96 2.48 2.51 2.42 2.06 1.67 1.48 1.35 1.08 0.80 0.55 0.43 0.36 0.29 0.22 0.17 0.15 0.12 0.08 0.06 0.03 0.01 0.00 0.00 0.00 0.00 0.00 0.02 0.03 0.04 0.05 0.08 0.09 0.05 0.03 0.04 0.04 0.07 0.06 0.04 0.06
1.13 1.77 2.19 2.09 1.55 1.07 0.88 0.80 0.74 0.54 0.39 0.34 0.30 0.25 0.21 0.19 0.16 0.14 0.15 0.12 0.07 0.05 0.03 0.01 0.00 0.00 0.00 0.01 0.01 0.01 0.02 0.03 0.03 0.06 0.10 0.07 0.03 0.03 0.04 0.04 0.05 0.06 0.07
0.82 1.11 1.24 0.99 0.82 0.71 0.63 0.65 0.57 0.34 0.27 0.22 0.18 0.16 0.15 0.16 0.16 0.14 0.14 0.13 0.10 0.07 0.05 0.03 0.01 0.01 0.01 0.02 0.02 0.02 0.04 0.05 0.05 0.06 0.10 0.11 0.12 0.11 0.06 0.04 0.04 0.09 0.10
0.48 0.45 0.44 0.40 0.39 0.40 0.43 0.51 0.49 0.42 0.34 0.28 0.22 0.20 0.17 0.17 0.17 0.17 0.17 0.17 0.16 0.13 0.10 0.08 0.06 0.03 0.02 0.02 0.02 0.03 0.05 0.07 0.09 0.09 0.11 0.14 0.17 0.18 0.15 0.06 0.06 0.10 0.08
0.42 0.34 0.26 0.22 0.24 0.25 0.27 0.33 0.43 0.52 0.49 0.43 0.34 0.29 0.23 0.20 0.19 0.18 0.18 0.18 0.16 0.15 0.14 0.13 0.11 0.09 0.05 0.03 0.02 0.03 0.05 0.07 0.09 0.11 0.12 0.15 0.15 0.17 0.20 0.13 0.10 0.11 0.08
0.45 0.42 0.30 0.22 0.18 0.17 0.15 0.13 0.14 0.24 0.28 0.28 0.30 0.31 0.29 0.25 0.20 0.17 0.14 0.16 0.15 0.16 0.15 0.14 0.14 0.13 0.11 0.07 0.04 0.03 0.03 0.05 0.07 0.09 0.11 0.15 0.15 0.19 0.21 0.17 0.14 0.20 0.21
0.25 0.25 0.19 0.13 0.08 0.06 0.05 0.04 0.03 0.05 0.07 0.09 0.13 0.17 0.21 0.17 0.15 0.20 0.16 0.17 0.21 0.22 0.21 0.15 0.13 0.14 0.14 0.12 0.08 0.05 0.03 0.03 0.06 0.06 0.12 0.14 0.12 0.17 0.17 0.17 0.23 0.27 0.32
0.09 0.10 0.10 0.08 0.06 0.04 0.03 0.03 0.02 0.01 0.02 0.03 0.05 0.09 0.14 0.15 0.14 0.16 0.16 0.16 0.22 0.23 0.21 0.17 0.14 0.13 0.14 0.14 0.12 0.09 0.07 0.06 0.08 0.11 0.15 0.17 0.17 0.19 0.22 0.25 0.30 0.35 0.32
0.07 0.07 0.06 0.06 0.05 0.04 0.04 0.04 0.03 0.02 0.02 0.02 0.03 0.05 0.11 0.15 0.15 0.14 0.17 0.18 0.18 0.18 0.17 0.16 0.13 0.11 0.12 0.13 0.13 0.12 0.12 0.12 0.14 0.17 0.19 0.22 0.22 0.23 0.26 0.27 0.35 0.45 0.43
0.05 0.04 0.04 0.04 0.04 0.03 0.03 0.03 0.03 0.03 0.02 0.02 0.02 0.02 0.05 0.09 0.14 0.17 0.18 0.19 0.18 0.16 0.14 0.14 0.13 0.12 0.11 0.13 0.14 0.15 0.15 0.13 0.14 0.13 0.15 0.20 0.24 0.26 0.29 0.36 0.42 0.45 0.53
0.01 0.01 0.02 0.02 0.02 0.03 0.03 0.04 0.04 0.03 0.03 0.02 0.02 0.01 0.01 0.03 0.06 0.10 0.14 0.16 0.15 0.14 0.14 0.13 0.12 0.09 0.09 0.12 0.16 0.18 0.17 0.16 0.15 0.13 0.15 0.15 0.17 0.21 0.26 0.34 0.39 0.45 0.57
0.00 0.01 0.01 0.02 0.03 0.03 0.03 0.02 0.02 0.02 0.01 0.01 0.01 0.00 0.00 0.00 0.01 0.04 0.07 0.10 0.12 0.13 0.13 0.13 0.11 0.09 0.08 0.08 0.11 0.15 0.18 0.20 0.19 0.18 0.18 0.16 0.16 0.18 0.23 0.31 0.33 0.38 0.55
0.00 0.00 0.01 0.01 0.01 0.01 0.01 0.00 0.00 0.00 0.00 0.01 0.01 0.01 0.01 0.01 0.01 0.01 0.03 0.05 0.08 0.11 0.12 0.12 0.11 0.10 0.08 0.06 0.06 0.07 0.10 0.14 0.18 0.23 0.22 0.19 0.17 0.16 0.14 0.23 0.35 0.40 0.48
0.01 0.01 0.01 0.01 0.01 0.02 0.02 0.02 0.03 0.03 0.03 0.04 0.05 0.05 0.05 0.05 0.04 0.04 0.03 0.04 0.06 0.09 0.12 0.12 0.12 0.11 0.10 0.07 0.06 0.07 0.06 0.07 0.10 0.15 0.20 0.19 0.16 0.14 0.12 0.13 0.23 0.36 0.51
0.04 0.04 0.04 0.03 0.02 0.02 0.02 0.02 0.02 0.02 0.03 0.04 0.04 0.04 0.04 0.04 0.04 0.04 0.03 0.04 0.06 0.09 0.13 0.13 0.13 0.13 0.10 0.08 0.06 0.06 0.06 0.07 0.07 0.10 0.16 0.16 0.15 0.11 0.09 0.08 0.11 0.19 0.33
0.02 0.01 0.01 0.00 0.00 0.00 0.00 0.00 0.00 0.00 0.01 0.01 0.01 0.02 0.02 0.03 0.04 0.04 0.04 0.04 0.06 0.09 0.13 0.15 0.15 0.15 0.15 0.12 0.08 0.06 0.06 0.07 0.07 0.08 0.10 0.11 0.10 0.11 0.08 0.05 0.05 0.06 0.13
0.00 0.00 0.00 0.00 0.00 0.00 0.00 0.00 0.00 0.00 0.00 0.01 0.01 0.02 0.03 0.04 0.05 0.08 0.09 0.08 0.09 0.10 0.13 0.14 0.16 0.17 0.18 0.14 0.10 0.08 0.07 0.08 0.08 0.09 0.09 0.10 0.10 0.09 0.08 0.06 0.04 0.03 0.04
0.00 0.00 0.00 0.00 0.00 0.00 0.00 0.00 0.00 0.00 0.01 0.01 0.02 0.03 0.04 0.06 0.08 0.09 0.12 0.15 0.16 0.15 0.18 0.19 0.20 0.21 0.21 0.17 0.11 0.09 0.08 0.09 0.10 0.11 0.12 0.13 0.11 0.08 0.07 0.07 0.04 0.02 0.02
0.00 0.00 0.00 0.00 0.00 0.00 0.00 0.01 0.01 0.02 0.03 0.04 0.05 0.06 0.08 0.11 0.13 0.14 0.16 0.18 0.21 0.21 0.23 0.26 0.28 0.29 0.28 0.22 0.15 0.12 0.09 0.11 0.12 0.15 0.16 0.16 0.13 0.10 0.08 0.07 0.05 0.02 0.01
0.00 0.00 0.00 0.00 0.00 0.00 0.02 0.04 0.05 0.07 0.07 0.08 0.08 0.09 0.11 0.14 0.16 0.19 0.21 0.22 0.22 0.23 0.26 0.30 0.32 0.36 0.39 0.33 0.20 0.16 0.14 0.14 0.16 0.19 0.20 0.20 0.18 0.15 0.11 0.08 0.06 0.03 0.01
0.00 0.00 0.00 0.00 0.00 0.01 0.05 0.08 0.10 0.09 0.10 0.10 0.10 0.10 0.11 0.11 0.13 0.17 0.21 0.23 0.27 0.29 0.31 0.38 0.44 0.47 0.50 0.47 0.33 0.20 0.18 0.20 0.22 0.24 0.27 0.26 0.26 0.23 0.19 0.13 0.08 0.04 0.02
0.00 0.00 0.00 0.01 0.02 0.03 0.08 0.12 0.11 0.10 0.12 0.13 0.12 0.12 0.13 0.14 0.16 0.18 0.18 0.20 0.22 0.23 0.28 0.42 0.56 0.63 0.63 0.56 0.45 0.29 0.21 0.23 0.26 0.28 0.37 0.40 0.37 0.35 0.30 0.22 0.14 0.07 0.04
0.00 0.00 0.01 0.04 0.05 0.06 0.08 0.09 0.11 0.13 0.16 0.17 0.16 0.16 0.18 0.18 0.19 0.22 0.22 0.21 0.20 0.20 0.26 0.41 0.55 0.65 0.65 0.55 0.43 0.33 0.27 0.28 0.31 0.32 0.42 0.52 0.54 0.52 0.46 0.35 0.21 0.10 0.06
0.01 0.02 0.05 0.09 0.10 0.08 0.08 0.08 0.12 0.18 0.22 0.21 0.20 0.21 0.22 0.22 0.21 0.22 0.22 0.21 0.22 0.21 0.23 0.36 0.55 0.62 0.55 0.45 0.36 0.31 0.30 0.29 0.34 0.38 0.48 0.63 0.69 0.72 0.64 0.48 0.29 0.15 0.09
0.04 0.08 0.12 0.14 0.14 0.12 0.11 0.11 0.16 0.24 0.28 0.27 0.24 0.24 0.23 0.22 0.22 0.21 0.19 0.16 0.15 0.13 0.10 0.15 0.29 0.40 0.37 0.31 0.28 0.27 0.27 0.25 0.26 0.34 0.48 0.67 0.74 0.77 0.72 0.56 0.35 0.18 0.09